Regional Weather Roundup
Issued by NWS

Home | Current Version | Previous Version | Text Only | Print | Product List | Glossary On
Versions: 1 2 3 4 5 6 7 8 9 10 11 12 13 14 15 16 17 18 19 20 21 22 23 24 25 26 27 28 29 30 31 32 33 34 35 36 37 38 39 40 41 42 43 44 45 46 47 48 49 50
000
ASUS43 KMPX 270201
RWRMN
WEATHER ROUNDUP FOR MINNESOTA
NATIONAL WEATHER SERVICE TWIN CITIES/CHANHASSEN MN
900 PM CDT THU APR 26 2018


NOTE: "FAIR" INDICATES FEW OR NO CLOUDS BELOW 12,000 FEET WITH NO
SIGNIFICANT WEATHER AND/OR OBSTRUCTIONS TO VISIBILITY. N/A MEANS
CURRENT SKY AND/OR WEATHER CONDITIONS ARE NOT AVAILABLE.

MNZ060>063-068>070-270300-
   Twin Cities Metro

CITY           SKY/WX    TMP DP  RH WIND       PRES   REMARKS
TWIN CITIES    FAIR      55  26  32 N12       29.92R
ST PAUL        FAIR      53  25  33 NW9       29.92R
CRYSTAL        FAIR      53  23  31 N7        29.92R
BLAINE         CLEAR     54  23  30 N7        29.92R
LAKEVILLE      FAIR      54  28  37 N10       29.91R
EDEN PRAIRIE   FAIR      54  30  40 NW7       29.91R
SOUTH ST PAUL  FAIR      55  23  29 N9        29.91R
LAKE ELMO      FAIR      52  27  37 NW6       29.92R
$$
MNZ001>005-007-008-013>017-022>024-027-028-270300-
   Northwest Minnesota

CITY           SKY/WX    TMP DP  RH WIND       PRES   REMARKS
BEMIDJI        FAIR      48  22  37 SW3       29.91F
HALLOCK        MOCLDY    55  27  33 S13       29.78F
ROSEAU         FAIR      48  36  61 S5        29.82F
WARROAD        FAIR      48  36  61 S6        29.84F
THIEF RVR FALL FAIR      50  31  48 S8        29.87F
CROOKSTON      FAIR      48  34  57 S9        29.86F
FOSSTON        FAIR      43  30  61 S7        29.90F
DETROIT LAKES  FAIR      46  32  57 SW3       29.94F
MOORHEAD       FAIR      54  28  37 S5        29.93F
PARK RAPIDS    FAIR      43  27  53 W3        29.93S
MAHNOMEN       FAIR      50  31  47 CALM      29.91F
$$
MNZ006-009>011-018-025>026-270300-
   North Central Minnesota

CITY           SKY/WX    TMP DP  RH WIND       PRES   REMARKS
BAUDETTE       CLOUDY    46  23  40 SE6       29.85F
FLAG ISLAND    CLOUDY    39  25  56 S9        29.84S
INTL FALLS     FAIR      43  22  43 SE3       29.88F
WASKISH        FAIR      39  25  56 CALM      29.89F
BIG FORK       FAIR      39  23  52 CALM      29.90S
LONGVILLE      FAIR      43  23  45 CALM      29.93R
GRAND RAPIDS   FAIR      48  20  32 W8        29.93R
CRANE LAKE     FAIR      32  25  74 CALM      29.92R
ORR            FAIR      37  21  52 CALM      29.88R
COOK           FAIR      39  23  52 CALM      29.90S
WALKER         FAIR      46  19  33 W3        29.92S
$$
MNZ012-019>021-037-270300-
   Northeast Minnesota

CITY           SKY/WX    TMP DP  RH WIND       PRES   REMARKS
DULUTH         FAIR      48  21  34 NW6       29.89R
ELY            FAIR      39  21  48 CALM      29.89S
HIBBING        FAIR      34  22  61 NW3       29.89S
EVELETH        FAIR      42  21  42 CALM      29.91R
DULUTH HARBOR  FAIR      39  34  81 N6        29.90R
TWO HARBORS    FAIR      46  27  46 CALM      29.88R
SILVER BAY     FAIR      43  25  49 CALM      29.88R
GRAND MARAIS     N/A     37  30  75 CALM      29.90R
G MARAIS ARPRT FAIR      34  21  60 NW3       29.89R
$$
MNZ029>031-032-039>041-046>048-054>057-064-270300-
   West Central Minnesota

CITY           SKY/WX    TMP DP  RH WIND       PRES   REMARKS
FERGUS FALLS   FAIR      48  30  49 CALM      29.93F
WHEATON        CLEAR     52  34  50 CALM      30.00S
MORRIS         CLEAR     50  34  53 CALM      29.98F
ALEXANDRIA     FAIR      49  28  44 NW3       29.98F
ELBOW LAKE     FAIR      48  32  53 CALM      29.97F
WADENA         FAIR      45  27  49 W3        29.95S
GLENWOOD       FAIR      46  28  49 W3        29.99S
APPLETON       CLEAR     46  36  66 N6        30.00R
BENSON         CLEAR     45  30  57 CALM      30.01S
ORTONVILLE     CLEAR     48  36  61 CALM      30.00S
MADISON        CLEAR     50  39  66 NE5       30.01R
WILLMAR        FAIR      45  30  57 N6        30.02S
$$
MNZ033>034-036-042>043-049>051-058-059-270300-
   Central Minnesota

CITY           SKY/WX    TMP DP  RH WIND       PRES   REMARKS
ST CLOUD       FAIR      47  29  49 NW12      29.94R
SAUK CENTRE    FAIR      46  28  49 NW6       29.97F
PAYNESVILLE    FAIR      47  30  50 NW7       29.98S
AITKIN         FAIR      43  23  45 CALM      29.92R
PINE RIVER     FAIR      46  21  36 CALM      29.96S
BRAINERD       FAIR      50  20  30 W5        29.94R
STAPLES        FAIR      43  25  49 W3        29.95S
LONG PRAIRIE   FAIR      46  27  46 W3        29.96F
LITTLE FALLS   FAIR      50  12  22 NW7       29.95R
LITCHFIELD     FAIR      52  27  37 NW10      29.98R
BUFFALO        FAIR      52  28  39 W9        29.95R
MAPLE LAKE     FAIR      50  32  49 NW10      29.95R
HUTCHINSON     FAIR      49  32  51 W12       29.98R
$$
MNZ037-044-045-052-053-270300-
   East Central Minnesota

CITY           SKY/WX    TMP DP  RH WIND       PRES   REMARKS
PRINCETON      FAIR      50  25  37 NW3       29.93S
MORA           FAIR      45  23  42 NW8       29.94R
CAMBRIDGE      FAIR      54  30  40 NW3       29.93R
RUSH CITY      MOCLDY    49  27  41 NW8       29.91S
MOOSE LAKE     FAIR      46  23  39 NW5       29.89R
HINCKLEY       FAIR      50  27  40 NW6       29.91R
CLOQUET        FAIR      48  10  21 NW3       29.90R
MCGREGOR       FAIR      48  23  37 W3        29.92R
$$
MNZ071>073-080-081-089-090-097-098-270300-
   Southwest Minnesota

CITY           SKY/WX    TMP DP  RH WIND       PRES   REMARKS
MONTEVIDEO     CLEAR     46  34  61 N5        30.01S
GRANITE FALLS  CLEAR     49  37  62 NW7       30.02R
CANBY          CLEAR     50  37  60 CALM      30.02S
MARSHALL       CLEAR     47  38  71 NW3       30.02R
REDWOOD FALLS  CLEAR     50  30  46 NW8       29.99R
OLIVIA         CLEAR     46  32  57 NW7       29.99S
PIPESTONE      CLEAR    N/A N/A N/A N3        30.02S
WINDOM         CLEAR     45  27  49 NW8       30.01R
WORTHINGTON    CLEAR     44  36  73 NW8       30.03R
JACKSON        CLEAR     46  34  61 NW14      30.00S
TRACY          CLEAR     48  38  68 NW6       30.01S
SLAYTON        CLEAR     48  36  62 NW8       30.03R
$$
MNZ065>067-074>077-082>085-091>093-270300-
   South Central Minnesota

CITY           SKY/WX    TMP DP  RH WIND       PRES   REMARKS
MANKATO        FAIR      50  34  54 NW13      29.96R
NEW ULM        CLEAR     46  34  61 NW12      29.98R
ST JAMES       CLEAR     46  36  66 NW13      29.99S
FAIRMONT       CLEAR     49  33  54 NW16      29.98R
GLENCOE        FAIR      50  34  54 W13       29.95R
OWATONNA       FAIR      52  36  54 NW14      29.92R
WASECA         FAIR      50  34  53 NW12      29.95R
ALBERT LEA     FAIR      52  27  37 NW9G22    29.93R
$$
MNZ078>079-086>088-094>096-270300-
   Southeast Minnesota

CITY           SKY/WX    TMP DP  RH WIND       PRES   REMARKS
ROCHESTER      FAIR      50  32  50 NW13      29.90R
RED WING       FAIR      55  23  28 W6        29.89R
STANTON        FAIR      51  33  48 N8        29.90R
DODGE CENTER   FAIR      52  34  50 NW13      29.90R
WINONA         FAIR      55  32  41 NW14      29.84R
AUSTIN         FAIR      52  34  50 NW15G22   29.91R
PRESTON        FAIR      52  30  43 NW12      29.88R
$$
ABBREVIATIONS USED IN REMARKS
   TC - TEMPERATURES IN CELSIUS
  WCI - WIND CHILL INDEX
   HX - HEAT INDEX
  VSB - VISIBILITY
$$




USA.gov is the U.S. government's official web portal to all federal, state and local government web resources and services.